Simultaneous Nadir Overpasses (SNOs) Predictions

Prediction of SNOs between AQUA and METOP-B Satellite Orbit:

Table of predicted SNOs for the next 14.0 days since TLE Epoch: 10/17/2020
Index Date (AQUA) Time (AQUA) Lat,Lon (AQUA) SZA (AQUA ) Date (METOP-B) Time (METOP-B) Lat,Lon (METOP-B) SZA (METOP-B ) Distance(km) Time Diff (sec)
1 10/18/2020 12:00:39 -73.81, 174.13 96.39 10/18/2020 12:00:05 -73.80, 174.16 96.39 1.47 34
2 10/18/2020 12:50:07 73.87, -18.35 83.69 10/18/2020 12:50:43 73.86, -18.36 83.69 0.32 36
3 10/21/2020 07:34:52 -73.78,-119.36 95.41 10/21/2020 07:34:29 -73.79,-119.46 95.40 3.32 23
4 10/21/2020 08:24:21 73.89, 48.04 84.72 10/21/2020 08:25:06 73.90, 48.14 84.73 3.39 45
5 10/24/2020 02:19:28 73.24, 140.58 85.02 10/24/2020 02:18:21 73.21, 138.28 85.01 73.98 67
6 10/24/2020 03:09:05 -73.81, -52.98 94.40 10/24/2020 03:08:51 -73.83, -52.97 94.37 2.30 14
7 10/24/2020 03:58:33 73.87, 114.53 85.68 10/24/2020 03:59:29 73.89, 114.51 85.70 2.44 56
8 10/26/2020 21:53:49 73.64,-153.81 86.39 10/26/2020 21:52:37 73.59,-154.44 86.35 20.52 72
9 10/26/2020 22:43:19 -73.84, 13.39 93.40 10/26/2020 22:43:15 -73.81, 13.40 93.43 3.22 4
10 10/26/2020 23:32:47 73.90,-179.10 86.68 10/26/2020 23:33:53 73.87,-179.12 86.65 3.39 66
11 10/29/2020 17:28:05 73.79, -87.68 87.47 10/29/2020 17:26:57 73.77, -87.61 87.46 2.73 68
12 10/29/2020 18:17:32 -73.83, 79.86 92.48 10/29/2020 18:17:38 -73.84, 79.88 92.46 1.68 6
